Flag for U.S.A. Weather past 2 weeks in Peoria, Illinois, U.S.A.

Now
41 °F

Sunny.


Feels Like: 34 °F
Forecast: 39 / 51 °F
Wind: 13 mph from South

Location: Greater Peoria Regional Airport

Current Time: Dec 26, 2014 at 9:47:05 AM

Latest Report: Dec 26, 2014 at 8:54 AM


Visibility: 10 mi

Pressure: 30.03 "Hg

Humidity: 80%

Dew point: 35 °F

Location of PeoriaLocation

Historic Weather in Peoria — Graph

°F

Peoria temperature yesterday

Maximum temperature yesterday: 49 °F (at 1:54 PM)
Minimum temperature yesterday: 36 °F (at 2:54 AM)
Average temperature yesterday: 41 °F

Past Weeks' High & Low Weather Summary

 TemperatureHumidityPressure
High52 °F (Dec 13, 2:54 PM)97% (Dec 14, 9:54 PM)30.39 "Hg (Dec 14, 9:54 PM)
Low19 °F (Dec 18, 5:54 AM)54% (Dec 19, 12:54 PM)29.49 "Hg (Dec 22, 11:54 PM)
Average37 °F78%30.06 "Hg
* Reported Dec 11 7:54 AM — Dec 26 7:54 AM, Peoria, Weather by CustomWeather, © 2014

Note: Actual official high and low records may vary slightly from our data, if they occured in-between our weather recording intervals... More about our weather records

Advertising

Peoria weather history for previous 24 hours

 ConditionsComfort  
Time TempWeatherWind HumidityBarometerVisibility
7:54 AM
Dec 26
37 °FSunny.8 mph86%30.03 "Hg10 mi
6:54 AM36 °FClear.8 mph85%30.02 "Hg10 mi
5:54 AM37 °FClear.12 mph82%30.01 "Hg10 mi
4:54 AM37 °FClear.12 mph86%30.00 "Hg10 mi
3:54 AM38 °FClear.13 mph83%30.01 "Hg10 mi
2:54 AM38 °FClear.13 mph83%30.00 "Hg10 mi
1:54 AM38 °FClear.13 mph83%30.00 "Hg10 mi
12:54 AM39 °FClear.13 mph82%30.00 "Hg10 mi
11:54 PM
Dec 25
39 °FClear.10 mph79%30.01 "Hg10 mi
10:54 PM42 °FClear.12 mph73%30.01 "Hg10 mi
9:54 PM42 °FClear.14 mph73%29.99 "Hg10 mi
8:54 PM42 °FClear.14 mph71%29.98 "Hg10 mi
7:54 PM44 °FClear.20 mph68%29.96 "Hg10 mi
6:54 PM44 °FClear.14 mph68%29.96 "Hg10 mi
5:54 PM44 °FClear.13 mph68%29.96 "Hg10 mi
4:54 PM45 °FClear.14 mph68%29.96 "Hg10 mi
3:54 PM47 °FSunny.14 mph59%29.96 "Hg10 mi
2:54 PM49 °FSunny.15 mph57%29.95 "Hg10 mi
1:54 PM49 °FSunny.16 mph57%29.94 "Hg10 mi
12:54 PM47 °FSunny.14 mph59%29.96 "Hg10 mi
11:54 AM45 °FSunny.17 mph63%29.96 "Hg10 mi
10:54 AM42 °FPassing clouds.17 mph68%29.99 "Hg10 mi
9:54 AM40 °FSunny.16 mph70%29.99 "Hg10 mi
Weather by CustomWeather, © 2014

See weather overviewHow to use our weather pages